Location: Fort Worth, Tx
(32.7431°N, 97.3695°W)
Time: 05:24:47
(UTC-05:00)

Altair - Pass Details

Date: 10 October 2023
Orbit: 1501 x 1682 km, 47.2° (Epoch: 06 December)

Event Time Altitude Azimuth Distance (km) Brightness Sun altitude
Rises 08:52:01 0° 306° (NW) 4,876 9.6 3.8°
Reaches altitude 10° 08:55:09 10° 304° (WNW) 3,905 9.1 4.4°
Maximum altitude 09:05:07 69° 223° (SW) 1,772 7.9 6.5°
Drops below altitude 10° 09:15:10 10° 143° (SE) 3,929 10.6 8.5°
Sets 09:18:19 0° 141° (SE) 4,907 11.1 9.2°
